User: anonymous   Login
Location: Adrasan
(36.3319°N, 30.4314°E)
Time: 13:20:41
(UTC+00:00)
Language:

Meteor 1-31 Rocket - Orbit

View from above orbital plane
View from above orbital plane
View from above satellite
View from above satellite

Ground track
Ground track

The orbit data is extracted from the following two-line orbital elements,

1 12586U 81065B   24112.96214393  .00013338  00000-0  63322-3 0  9996
2 12586  97.6964 125.6632 0014064 248.2894 111.6843 15.19291655330196
Epoch (UTC): 21 April 2024 23:05:29
Eccentricity: 0.0014064
inclination: 97.6964°
perigee height: 498 km
apogee height: 517 km
right ascension of ascending node: 125.6632°
argument of perigee: 248.2894°
revolutions per day: 15.19291655
mean anomaly at epoch: 111.6843°
orbit number at epoch: 33019

The dashed part of the orbit path shows where the satellite is in the earth's shadow,  

DLR